Hourly Data Report for October 04, 2015

All times are specified in Local Standard Time (LST). Add 1 hour to adjust for Daylight Saving Time where and when it is observed.

KUGAARUK CLIMATE
NUNAVUT

68°32'15.060" N
89°47'47.020" W
15.80 m
2303094
71407
NBB

Download Data

Hourly Data (October 2015)
Hourly Data Report for October 4, 2015
Temp Definition
°C
Dew Point Temp Definition
°C
Rel Hum Definition
%
Wind Dir Definition
10's deg

Wind Spd Definition
km/h
Visibility Definition
km
Stn Press Definition
kPa
Hmdx Definition


Wind Chill Definition


Weather Definition


TIME
00:00 -1.6 -5.1 77 24 26   102.41   -8 LegendNANA
01:00 -1.8 -5.3 77 24 27   102.45   -8 LegendNANA
02:00 -2.6 -5.5 80 22 24   102.39   -9 LegendNANA
03:00 -2.9 -5.6 82 22 25   102.35   -10 LegendNANA
04:00 -2.9 -5.5 82 22 28   102.33   -10 LegendNANA
05:00 -3.0 -5.6 82 21 23   102.29   -9 LegendNANA
06:00 -2.3 -5.5 78 23 33   102.24   -10 LegendNANA
07:00 -2.3 -5.9 76 21 30   102.22   -9 LegendNANA
08:00 -2.0 -5.7 76 23 27   102.17   -9 LegendNANA
09:00 -1.4 -5.4 74 22 27   102.12   -8 LegendNANA
10:00 -0.9 -5.2 72 23 30   102.09   -8 LegendNANA
11:00 -1.0 -4.7 76 22 23   102.05   -7 LegendNANA
12:00 -0.9 -3.5 82 22 20   101.99   -6 LegendNANA
13:00 -0.7 -3.3 83 22 23   101.93   -7 LegendNANA
14:00 -0.5 -3.1 82 22 27   101.90   -7 LegendNANA
15:00 -0.5 -2.4 87 22 22   101.87   -6 LegendNANA
16:00 -0.3 -2.1 87 21 21   101.82   -6 LegendNANA
17:00 0.0 -2.0 87 21 17   101.77   -5 LegendNANA
18:00 0.1 -1.7 88 22 21   101.71     LegendNANA
19:00 0.1 -1.6 89 21 21   101.67     LegendNANA
20:00 0.1 -1.5 89 21 18   101.66     LegendNANA
21:00 -0.3 -1.8 90 23 17   101.64   -5 LegendNANA
22:00 -0.3 -2.0 89 23 17   101.62   -5 LegendNANA
23:00 -0.6 -2.4 87 21 17   101.56   -6 LegendNANA

Notes on Data Quality.

Legend

  • E = Estimated
  • M = Missing
  • NA = Not Available
  • ‡ = Partner data that is not subject to review by the National Climate Archives
Date modified: